"Pseudo-MPEC" for C04H051

Created 2019 Mar 20 23:18:07 UT using Find_Orb

Click here for an explanation of pseudo-MPECs

 
 Astrometry: 
     C04H051  C2019 03 04.30224 11 29 07.11 +25 36 20.4    ~39Bm 18.7 GVNEOCP703
     C04H051  C2019 03 04.30756 11 28 40.42 +25 36 47.5    ~39Bm 18.6 GVNEOCP703
     C04H051  C2019 03 04.31292 11 28 13.19 +25 37 15.1    ~39Bm 18.9 GVNEOCP703
     C04H051  C2019 03 04.46263 11 15 36.49 +25 47 38.1    ~39Bm 18.4 GVNEOCPI52
     C04H051  C2019 03 04.46287 11 15 35.25 +25 47 38.5    ~39Bm 18.2 GVNEOCPI52
     C04H051  C2019 03 04.46311 11 15 34.01 +25 47 39.6    ~39Bm 18.3 GVNEOCPI52
     C04H051  C2019 03 04.46335 11 15 32.76 +25 47 40.1    ~39Bm 18.0 GVNEOCPI52
     C04H051  C2019 03 06.31918 08 45 43.11 +22 38 11.6    ~39Bm 19.6 GVNEOCPG96
     C04H051  C2019 03 06.31941 08 45 42.16 +22 38 08.4    ~39Bm 19.6 GVNEOCPG96
     C04H051  C2019 03 06.31964 08 45 41.25 +22 38 05.5    ~39Bm 19.5 GVNEOCPG96
     C04H051  C2019 03 06.31988 08 45 40.32 +22 38 02.3    ~39Bm 19.5 GVNEOCPG96
     C04H051 KC2019 03 06pDJPQFLx\V*ma;6NG7ixJ!lpS=o+ceO3;'Astrometry3A%i$5sKJ04
     C04H051 KC2019 03 06GGRLHxBUk`%WjlLqnPIL?wwI@9'0mNWE%wwZ9huryee6ENfn_kQ.J04
     C04H051 KC2019 03 06S7r34om(7Bk-eqCdEcYyH$PVjuEfgcsX[,G*TOuv)f^I7[36yl5GJ04
     C04H051 |C2019 03 07[]@T;U;b9ok5EuU]xm?1]rXs?)9QxTc3k]A-9\I,+ouQDQ4Bx-S[807
     C04H051 |C2019 03 07*FVmYGQ!.D7XPC'LtKWbGUJTjOfy(43[VZ:$1o2U-D`PK2$Pifwx807
     C04H051 |C2019 03 07H`v5ARp60'+C78AwhmcFw,3O^#[wSV9R55*_K;AV82IYckL8$2%S807
     C04H051  C2019 03 07.11584 07 59 22.56 +19 41 30.4    ~39Bm 19.3 GVNEOCPI52
     C04H051  C2019 03 07.11946 07 59 11.59 +19 40 42.7    ~39Bm 19.2 GVNEOCPI52
     C04H051  C2019 03 07.12024 07 59 09.21 +19 40 32.3    ~39Bm 19.3 GVNEOCPI52
     C04H051 KC2019 03 08.02229107 20 46.00 +16 33 22.1    ~39Bm       VNEOCPJ95
     C04H051 KC2019 03 08.03506907 20 18.65 +16 30 56.8    ~39Bm 20.3 GVNEOCPJ95
     C04H051  C2019 03 08,448##CcN8*_Pbc%Sj+kH=JUg-CqAXU,JX0GA8_%Qiu9-Tmw_8yVT12
     C04H051  C2019 03 087o[l!+$eSF$8%/\!IiU@oT?%qM#g$XMaJ(l)HEOL8.5N/^=?T74cT12
     C04H051  C2019 03 08;vZB]_J*hr)=xAK4I5L@T'WBjg[J$,L?(-a@lfJZ8SQkOV%xE+?yT12
     C04H051  C2019 03 08'B=-y:#?`Cit\wKML\,J'7C[$tVZlg;4^IP^=.#XQGRgDX:p:tulT12
     C04H051  C2019 03 08^.FLmo#QfeTD!w*yredacted;/xo#yjxkb/;.vEl*kw`u(M`7qWlT12
     C04H051  C2019 03 08Zl+37GBRUrx!i@T*o61VM\3@+NfgMQ43dKZ`$jXk4EeBO[Y:k`wXT12
     C04H051  C2019 03 08NOaam3u-k?eG1TlPPvec6VJ34^ot+H3Q=NE*IRuirBTi*Vep@UDiT12
     C04H051  C2019 03 08y8=N7!Riwu;sOub3R']L]p3xVf%V@qMo.N!Q%vmy%h;ltwPFZn:[T12
     C04H051  C2019 03 08U.N$pW%H\!o5Z7QM2N#XbKO`D4Q3Shh[G_8L-u(V0bm;5%Cl8+qgT12
     C04H051  C2019 03 08V@xwg]6:Devu^n7NM4te@F,[#q1foA\6tZW1JqV5m0d,XU4`j.K0T12
     C04H051  C2019 03 08RyRiiLIF^Mrnb?XL%k(9QrV\0h[BrlOKEnKAncH@10`D6e5rY@D[T12
     C04H051  C2019 03 08k.qp-i3d2v2Sbvm,22A_k;]EL4n/BeY*Tw=r0m*=Uda8v\QBQ5w-T12
     C04H051  C2019 03 08a^Go\gF2q=Aw')jW?uSq00H=^c^[hv'#l=B3cT_Zu6;XLRV#f6K^T12
     C04H051  C2019 03 08`^V,Uxs,XR[oGnOsF+SILCt0Lb`5s9O1I[fG/^-gjh\7\f1\qd+CT12
     C04H051  C2019 03 08IoaS[0hG1w`reP`!hwgSYclick_=?\YxDmtlqD-J%q8\6@TUqnV9T12
     C04H051  C2019 03 08x?CP=6K/-Ip1(AJ.#:)1oK9Ko+*Rn\Lk3i(^Sia#UiE%QsZ4h4nmT12
     C04H051  C2019 03 08[:uLMe.erRLu-otf!w_5e'J3tQ,]dd-yY(K,G4L?fRoMHC9#@R8_T12
     C04H051  C2019 03 08k2wR1VZ6=\JiUjAJ=CnVFh._(A!Tuog@'er8u,)lhS[DDWH;Tpr!T12
     C04H051  C2019 03 08OQeqqF6C91OB$rO9pMJriYi;Z\ONW+C`6bWacm*Y4x7,M*U/txh=T12
     C04H051  C2019 03 08N'Kdj\-*0ccDaT*h8`wG[uiRhk,1O_WA#!$)..nqKlXYwq]xsrsbT12
     C04H051  C2019 03 08Mf:oi;MM#[ut`g,?a6_cN2LSN40!q8gfa1'4^+I3Y/f(?'ruf\IRT12
     C04H051  C2019 03 08mYpYt';.?1RY@,yKuFW$y?[o.b6Xv0_7?X7P0JK=J'B*wQ3UP,6VT12
     C04H051  C2019 03 08:96Q2oBbYlgPpIM!KJR9%\Eo8Ga0eD-Y]xdom,1RSWI*$M.0fglfT12
     C04H051  C2019 03 08AVe$TOM!5_'Al8jnBHuPX=J(S.IQWUL3@+AIXB8q#Yc$18L-i_I`T12
     C04H051  C2019 03 08O/Kb)V],iYD:\WXR[ikbv4GyNV*B(^AWGGsPWV65Z;L8s$MI5m76T12
     C04H051  C2019 03 08i^-7+ZhereAb72cLlXR^+WfGZUnrla8mlTB[8)LCdH`UZ#'[4?@ET12
     C04H051  C2019 03 08,wiSCDv$6Y+4C-txgQZG2nfR9Ksrf/JL`m)kVb(5G3TjeAAEh-m/T12
     C04H051  C2019 03 08v]M6P-@Bc\$R)@e]0QXQP^x/w^DcqD9.KP92J5u,9(iYmLCD*tO^T12
     C04H051  C2019 03 0876@EJ^NtM$Zf,IESOBR3'q(T?EsWL0HF0pHlDvJXbV'b00*bC!CnT12
     C04H051  C2019 03 08U5m!E1KmXoi(M,9.nIRe;S./7_C@ciOx6PCUkZ$4+@Umh$1ACNQiT12
     C04H051 _C2019 03 09.25163806 45 28.697+13 11 30.24   ~3AMX 21.4 GVNEOCP568
     C04H051 _C2019 03 09.25343906 45 26.184+13 11 15.08   ~3AMX 21.5 GVNEOCP568
     C04H051 _C2019 03 09.25470106 45 24.425+13 11 04.46   ~3AMX 21.6 GVNEOCP568
     C04H051  C2019 03 094RFPHsA\QUy\PTO3:9Vthbd-RQG`a5maTC0'F3syo#TyBA9[w4#9T12
     C04H051  C2019 03 09D!y+/vokn$h;sEIrgjf#BTZ[,E'i143ggv4g2*kTy?#kAGWDie%KT12
     C04H051  C2019 03 09sWblSZZul@!q_!t+BBAe(Fjy$w:nqgK3YYmmT:1t;]4pW?8S[3?cT12
     C04H051  C2019 03 09,2x2E2km%yaks(ar_dmxfY1Ov#j-0`v!rgHQf/v9e$U]51QTQ1?aT12
     C04H051  C2019 03 09)('J*Xj:/]%38=+Nsp%MGjl(RiR!vY0Y;k)y#s92WsIj+wcWjIG6T12
     C04H051 IC2019 03 09=62/s13G%E$REMB+%_-\)0]?b7ykV=dFfor)s?:,@s,DK+LG6+,wL01
     C04H051 IC2019 03 09;.JaAKdJD^+$8k#cP)1g4qU-LYvu$F\Cgaak_y0jXH5[1fv-RnK-L01
     C04H051 KC2019 03 09OOwLp^4bDgrhEt$Z+Dx\Q*PVk_TX0]M92Kf(cTjaAPg6.Gv,X]*bL01
     C04H051 IC2019 03 09_5Jq`6S$jxe2:oSQWT'c._m!nCp+3U@]L[tY_W$*rN]#+l*oCImDL01
     C04H051 IC2019 03 09hpnwjN6c+:mWh+ZNwCwalE_d[_wW@si4p3,vHj%CO:qLXn#@:HY$L01
     C04H051 KC2019 03 10Zd*:'j6)jZbg/855`9U!a4YE-5`EetKPXe1HV:m6V4F3M5H3N#hj291
     C04H051 KC2019 03 10x#XIS7i_EX,[hA[!HqI[yJirL3K/=IfuL?f;]L`o2v^SW_!(c7(i291
     C04H051  C2019 03 12PUC=+p6q1twrCdn[=%us.^djM%oCl.cvc-9H#Pth$q:![b]ShXPpT12
     C04H051  C2019 03 12ow^k;k+cH5]69/Q:D9QQ[cWeY!_1JO+?i1A4p_\+BMD+X8PKj'--T12
     C04H051  C2019 03 12?;]^A'Ic;?HRJDYH*7;4b+oI8.vY#beB#IDPPaEIcQt.0v8G7dvuT12
     C04H051  C2019 03 12%hO\7/[A9B@c,r7n(3`*%fH!a5DE-GRf5[IE*!^AG2m^vLfZQ,(,T12
     C04H051  C2019 03 12Fkg':mxHe$ifk7%q3Q8m\DOBllM,q%explanationRl3V9:.;Y2_T12

Station data:
(291) LPL/Spacewatch II  (N31.961669 W111.599905)  US/Arizona.  Observers J.
   V. Scotti, R. S. McMillan. 1.8-m f/2.7 reflector + CCD.
(568) Mauna Kea  (N19.826116 W155.472200)  US/Hawaii.
(703) Catalina Sky Survey  (N32.417006 W110.732640)  US/Arizona.  Observers
   B. M. Africano, E. J. Christensen, G. A. Farneth, D. C. Fuls, A. R. Gibbs,
   A. D. Grauer, H. Groeller, J. A. Johnson, R. A. Kowalski, S. M. Larson, G.
   J. Leonard, R. L. Seaman, F. C. Shelly. 0.68 m Schmidt + 10K CCD.
(807) Cerro Tololo Observatory, La Serena  (S30.169136 W70.805900)  Chile.
   1.5-m Ritchey-Chrétien.
(G96) Mt. Lemmon Survey  (N32.442754 W110.788720)  US/Arizona.  Observers B.
   M. Africano, E. J. Christensen, G. A. Farneth, D. C. Fuls, A. R. Gibbs, A.
   D. Grauer, H. Groeller, J. A. Johnson, R. A. Kowalski, S. M. Larson, G. J.
   Leonard, R. L. Seaman, F. C. Shelly. 1.5-m reflector + 10K CCD.
(I52) Steward Observatory, Mt. Lemmon Station  (N32.442547 W110.788920)
   US/Arizona.  Observers B. M. Africano, E. J. Christensen, G. A. Farneth,
   D. C. Fuls, A. R. Gibbs, A. D. Grauer, H. Groeller, J. A. Johnson, R. A.
   Kowalski, S. M. Larson, G. J. Leonard, R. L. Seaman, F. C. Shelly. 1.0-m
   reflector + CCD.
(J04) ESA Optical Ground Station, Tenerife  (N28.300924 W16.511830)  Canary
   Islands (Spain).  Observer D. Abreu. Measurers M. Micheli, D. Koschny, E.
   Schwab, M. Busch, A. Knöfel. 1.0-m f/4.4 reflector + CCD.
(J95) Great Shefford  (N51.474969 W1.447003)  UK.  Observer P. Birtwhistle.
   0.40-m f/6.0 Schmidt-Cassegrain + CCD.
(L01) Višnjan Observatory, Tičan  (N45.290900 E13.749300)  Croatia.
   Observers K. Korlević, E. Pettarin. Measurer E. Pettarin. 1.0-m f/2.9
   reflector + CCD.
(T12) Mauna Kea-UH/Tholen NEO Follow-Up (2.24-m)  (N19.822991 W155.469434)
   US/Hawaii.  Observers D. Fohring, D. Hung, Y. Ramanjooloo, Z. Claytor, D.
   J. Tholen. 2.24-m University of Hawaii reflector.

Orbital elements:  C04H051
   Perihelion 2019 Mar 17.469346 +/- 0.14 TT = 11:15:51 (JD 2458559.969346)
Epoch 2019 Mar 12.0 TT = JDT 2458554.5   Earth MOID: 0.0994   AutoNEOCP
q   1.07747239 +/- 0.0004           (J2000 ecliptic)
H   22.6  G 0.15                    Peri.  193.00475 +/- 0.13
                                    Node   340.62181 +/- 0.009
e   1.0095193 +/- 0.0127            Incl.  139.85469 +/- 0.057
From 72 observations 2019 Mar. 4-12; mean residual 0".48
Residuals in arcseconds: 
190304 703  3.0+  .40-    190308 T12  .09-  .05+    190308 T12  .14-  .04+    
190304 703  1.7+  .46-    190308 T12  .04-  .04+    190308 T12  .02-  .13+    
190304 703  3.8-  .10+    190308 T12  .15-  .05-    190308 T12  .06-  .01+    
190304 I52  .11+  .03-    190308 T12  .12-  .01+    190308 T12  .29-  .16+    
190304 I52  .11-  .42-    190308 T12  .03-  .03+    190309 568  .02+  .02+    
190304 I52  .34-  .11-    190308 T12  .01-  .03+    190309 568  .03+  .02+    
190304 I52  .70-  .40-    190308 T12  .06+  .00     190309 568  .05+  .02+    
190306 G96  .24-  .01+    190308 T12  .05-  .00     190309 T12  .06-  .11+    
190306 G96  .60-  .22-    190308 T12  .10+  .03+    190309 T12  .03+  .04+    
190306 G96  .40-  .14-    190308 T12  .14+  .16-    190309 T12  .01-  .05+    
190306 G96  .08+  .24-    190308 T12  .04-  .09+    190309 T12  .04-  .01+    
190306 J04  .15-  .01-    190308 T12  .10-  .02+    190309 T12  .04-  .05+    
190306 J04  .07+  .23+    190308 T12  .04-  .05+    190309 L01  .21+  .27-    
190306 J04  .13-  .08+    190308 T12  .17-  .02+    190309 L01  .08+  .79-    
190307 807  .16+  .45-    190308 T12  .13-  .00     190309 L01  .57-  .09+    
190307 807  .29-  .34+    190308 T12  .01+  .16-    190309 L01  .36+  .37+    
190307 807  .40-  .26+    190308 T12  .04-  .04+    190309 L01  .10+  .35+    
190307 I52  .19-  .06+    190308 T12  .23-  .05+    190310 291  .23-  .12+    
190307 I52  .06+  .18+    190308 T12  .14-  .03-    190310 291  .72-  .50+    
190307 I52  .14-  .09+    190308 T12  .15-  .02-    190312 T12  .05-  .01-    
